Home   Weather   Long Beach   Past weeks

Flag for USA Past Weather in Long Beach, California, USA — Yesterday and Last 2 Weeks

Now
68 °F

Sunny.


Feels Like: 68 °F
Forecast: 60 / 71 °F
Wind: 10 mph from South

Location: Long Beach Airport

Current Time: Apr 24, 2017 at 4:28:18 pm

Latest Report: Apr 24, 2017 at 3:53 pm


Visibility: 10 mi

Pressure: 29.89 "Hg

Humidity: 59%

Dew Point: 53 °F

Location of Long BeachLocation

Past Weather in Long Beach — Graph

°F

Long Beach Temperature Yesterday

Maximum temperature yesterday: 74 °F (at 11:53 am)
Minimum temperature yesterday: 61 °F (at 5:53 am)
Average temperature yesterday: 66 °F

High & Low Weather Summary for the Past Weeks

 TemperatureHumidityPressure
High85 °F (Apr 21, 3:53 pm)90% (Apr 20, 6:18 am)30.13 "Hg (Apr 20, 6:18 am)
Low51 °F (Apr 11, 5:53 am)18% (Apr 15, 4:53 pm)29.81 "Hg (Apr 22, 3:53 pm)
Average65 °F60%29.99 "Hg
* Reported Apr 9 2:53 pm — Apr 24 2:53 pm, Long Beach, Weather by CustomWeather, © 2017

Note: Actual official high and low records may vary slightly from our data, if they occured in-between our weather recording intervals... More about our weather records

Advertising

Long Beach Weather History for the Previous 24 Hours

Scroll right to see more
 ConditionsComfort  
Time TempWeatherWind HumidityBarometerVisibility
2:53 pm
Mon, Apr 24
68 °FSunny.10 mph59%29.91 "Hg10 mi
1:53 pm68 °FSunny.10 mph57%29.93 "Hg10 mi
12:53 pm69 °FScattered clouds.10 mph53%29.94 "Hg10 mi
11:53 am66 °FScattered clouds.9 mph61%29.95 "Hg10 mi
11:00 am66 °FScattered clouds.10 mph63%29.96 "Hg10 mi
10:35 am67 °FBroken clouds.8 mph63%29.95 "Hg10 mi
9:53 am65 °FOvercast.8 mph66%29.95 "Hg10 mi
8:53 am65 °FMostly cloudy.5 mph68%29.93 "Hg10 mi
7:53 am63 °FPassing clouds.7 mph73%29.92 "Hg9 mi
6:53 am61 °FPassing clouds.5 mph75%29.90 "Hg9 mi
6:41 am61 °FScattered clouds.5 mph75%29.90 "Hg9 mi
5:53 am61 °FPassing clouds.5 mph75%29.88 "Hg10 mi
5:15 am61 °FPassing clouds.3 mph78%29.88 "Hg10 mi
5:00 am61 °FPassing clouds.3 mph78%29.88 "Hg10 mi
3:53 am61 °FOvercast.3 mph75%29.87 "Hg10 mi
3:09 am61 °FPassing clouds.6 mph78%29.85 "Hg10 mi
2:53 am60 °FPassing clouds.6 mph80%29.85 "Hg9 mi
2:34 am61 °FPassing clouds.5 mph81%29.86 "Hg9 mi
1:53 am61 °FOvercast.3 mph81%29.87 "Hg9 mi
1:26 am61 °FOvercast.3 mph83%29.87 "Hg9 mi
1:11 am61 °FPassing clouds.5 mph83%29.87 "Hg8 mi
1:02 am61 °FPartly cloudy.5 mph83%29.87 "Hg8 mi
11:53 pm
Sun, Apr 23
61 °FClear.No wind81%29.88 "Hg9 mi
10:53 pm61 °FClear.3 mph78%29.88 "Hg9 mi
9:53 pm62 °FClear.6 mph73%29.86 "Hg10 mi
8:53 pm63 °FClear.6 mph75%29.85 "Hg10 mi
7:53 pm66 °FClear.5 mph54%29.83 "Hg10 mi
6:53 pm68 °FSunny.7 mph51%29.83 "Hg10 mi
5:53 pm72 °FSunny.9 mph44%29.82 "Hg10 mi
4:53 pm73 °FSunny.12 mph50%29.82 "Hg10 mi
Weather by CustomWeather, © 2017

See weather overviewHow to use our weather pages